• Join FlightAware (Why Join?)
  • Login
  • US Flag 
07:34PM EST


 

Airport Tracker/Info


-or-


 

Live Flight TrackerFlight Track Log ✈ ASQ5740 ✈ 18-Nov-2013 ✈ KGSP - KIAD

Flight Track Log - Related Links

Times and Time Zones

All times are in EST time to prevent confusion due to time zone crossing. See the ASQ5740 flight status page for this flight to view local times or setup timezone preferences in your user account.

Time Position Orientation Groundspeed Altitude Reporting Facility
EST Latitude Longitude Course Direction KTS MPH feet Rate Location/Type
02:53PM 34.9017 -82.0936 47° Northeast 269 310 7,500  Level Atlanta Center
02:54PM 34.9631 -82.0214 44° Northeast 285 328 9,300 1,750 Climbing Atlanta Center
02:55PM 35.0408 -81.9358 42° Northeast 320 368 11,000 1,750 Climbing Atlanta Center
02:56PM 35.3873 -81.6786 73° East  Level Estimated
02:56PM 35.1328 -81.9383 359° North 309 356 12,800  Level Atlanta Center
02:57PM 35.4690 -81.5880 68° East  Level Estimated
02:57PM 35.2267 -81.9436 357° North 317 365 14,500  Level Atlanta Center
02:58PM 35.3133 -81.8831 30° Northeast 328 377 15,900 1,300 Climbing Atlanta Center
02:59PM 35.3611 -81.7569 65° Northeast 335 386 17,100 1,150 Climbing Atlanta Center
03:00PM 35.4108 -81.6308 64° Northeast 370 426 18,200 1,000 Climbing Atlanta Center
03:01PM 35.4625 -81.4967 65° Northeast 410 472 19,100 850 Climbing Atlanta Center
03:02PM 35.5136 -81.3572 66° East 428 493 19,900 800 Climbing Atlanta Center
03:03PM 35.5631 -81.2331 64° Northeast 441 507 20,700 750 Climbing Atlanta Center
03:04PM 35.6161 -81.0958 65° Northeast 447 514 21,400 850 Climbing Atlanta Center
03:05PM 35.6750 -80.9403 65° Northeast 448 516 22,400 850 Climbing Atlanta Center
03:06PM 35.7242 -80.8208 63° Northeast 443 510 23,100 650 Climbing Atlanta Center
03:07PM 35.7806 -80.6753 64° Northeast 443 510 23,700 600 Climbing Atlanta Center
03:08PM 35.8406 -80.5089 66° East 462 532 24,300 476 Climbing Atlanta Center
03:10PM 35.9397 -80.2611 64° Northeast 473 544 25,000 253 Climbing Washington Center
03:11PM 35.9978 -80.1056 65° Northeast 479 551 25,000  Level Washington Center
03:12PM 36.0622 -79.9497 63° Northeast 489 563 25,000  Level Washington Center
03:13PM 36.1422 -79.8103 55° Northeast 494 568 25,000  Level Washington Center
03:14PM 36.2178 -79.6806 54° Northeast 518 596 25,000  Level Washington Center
03:15PM 36.3022 -79.5250 56° Northeast 499 574 25,000  Level Washington Center
03:16PM 36.3817 -79.3897 54° Northeast 499 574 25,000  Level Washington Center
03:17PM 36.4572 -79.2436 57° Northeast 499 574 25,000  Level Washington Center
03:18PM 36.5406 -79.1053 53° Northeast 499 574 25,000  Level Washington Center
03:19PM 36.6178 -78.9639 56° Northeast 499 574 25,000  Level Washington Center
03:20PM 36.6881 -78.8322 56° Northeast 506 582 25,000  Level Washington Center
03:21PM 36.7650 -78.6903 56° Northeast 506 582 25,000  Level Washington Center
03:22PM 36.8456 -78.5481 55° Northeast 501 577 25,000 -248 Level Washington Center
03:23PM 36.9733 -78.4464 32° Northeast 480 552 24,500 -744 Descending Washington Center
03:24PM 37.0922 -78.3519 32° Northeast 493 567 23,500 -992 Descending Washington Center
03:25PM 37.2114 -78.2519 34° Northeast 505 581 22,500 -744 Descending Washington Center
03:26PM 37.3283 -78.1567 33° Northeast 509 586 22,000 -248 Descending Washington Center
03:27PM 37.4408 -78.0636 33° Northeast 496 571 22,000 -50 Level Washington Center
03:28PM 37.5511 -77.9731 33° Northeast 478 550 21,900 -559 Descending Washington Center
03:29PM 37.6633 -77.8819 33° Northeast 478 550 20,900 -1,190 Descending Washington Center
03:30PM 37.7736 -77.7881 34° Northeast 478 550 19,500 -2,118 Descending Washington Center
03:31PM 37.8836 -77.6939 34° Northeast 473 544 16,700 -2,695 Descending Washington Center
03:32PM 37.9894 -77.6072 33° Northeast 467 537 14,200 -2,579 Descending Washington Center
03:33PM 38.0908 -77.5256 32° Northeast 456 525 11,500 -2,083 Descending Washington Center
03:34PM 38.1756 -77.4511 35° Northeast 409 471 10,000 -843 Descending Washington Center
03:35PM 38.2514 -77.4056 25° Northeast 347 399 9,800 -807 Descending Washington Center
03:36PM 38.3136 -77.4175 351° North 254 292 8,400 -864 Descending Washington Center
03:37PM 38.3672 -77.4586 329° Northwest 222 255 8,100 -450 Descending Washington Center
03:38PM 38.4358 -77.4736 350° North 222 255 7,500 -496 Descending Washington Center
03:39PM 38.5047 -77.4728 North 234 269 7,100 -246 Descending Washington Center
03:40PM 38.5736 -77.4692 North 234 269 7,000 -303 Descending Washington Center
03:41PM 38.6403 -77.4656 North 234 269 6,500 -1,010 Descending Washington Center
03:42PM 38.6833 -77.4667 359° North 235 270 5,300 -1,456 Descending Potomac TRACON
03:43PM 38.7500 -77.4667 360° North 227 261 4,000 -1,250 Descending Potomac TRACON
03:44PM 38.8167 -77.4667 360° North 216 249 2,800 -1,105 Descending Potomac TRACON
03:45PM 38.8667 -77.4667 360° North 170 196 1,900 -895 Descending Potomac TRACON
03:46PM 38.9000 -77.4667 360° North 136 157 1,100 -800 Descending Potomac TRACON